Location: Unspecified
(48.8656°N, 0.0000°E)
Time: 17:30:24
(UTC+00:00)

Transit 2A Rocket - Pass Details

Date: 26 June 2019
Orbit: 588 x 915 km, 66.7° (Epoch: 16 July)

Event Time Altitude Azimuth Distance (km) Brightness Sun altitude
Rises 07:40:30 0° 160° (SSE) 3,537 8.7 33.3°
Reaches altitude 10° 07:43:59 10° 141° (SE) 2,598 8.4 33.8°
Maximum altitude 07:47:34 16° 105° (ESE) 2,162 9.0 34.4°
Drops below altitude 10° 07:51:05 10° 68° (ENE) 2,558 8.8 35.0°
Sets 07:54:28 0° 49° (NE) 3,457 8.9 35.5°
